TimePST,TemperatureF,Dew PointF,Humidity,Sea Level PressureIn,VisibilityMPH,Wind Direction,Wind SpeedMPH,Gust SpeedMPH,PrecipitationIn,Events,Conditions,WindDirDegrees,DateUTC
12:15 AM,46.4,46.4,100,30.10,3.0,WNW,5.8,-,N/A,,Overcast,300,2012-12-07 08:15:00
12:35 AM,46.4,46.4,100,30.09,3.0,NW,8.1,-,N/A,,Overcast,320,2012-12-07 08:35:00
12:55 AM,46.4,46.4,100,30.09,3.0,WNW,6.9,-,N/A,,Overcast,300,2012-12-07 08:55:00
1:15 AM,44.6,44.6,100,30.08,3.0,NW,5.8,-,N/A,,Overcast,310,2012-12-07 09:15:00
1:35 AM,44.6,44.6,100,30.08,3.0,NW,6.9,-,N/A,,Overcast,320,2012-12-07 09:35:00
1:55 AM,44.6,44.6,100,30.08,4.0,NW,8.1,-,N/A,,Overcast,310,2012-12-07 09:55:00
2:15 AM,44.6,44.6,100,30.09,3.0,WNW,8.1,-,N/A,,Overcast,300,2012-12-07 10:15:00
2:35 AM,44.6,44.6,100,30.09,3.0,WNW,10.4,-,N/A,,Overcast,300,2012-12-07 10:35:00
3:15 AM,44.6,44.6,100,30.08,4.0,NW,4.6,-,N/A,,Overcast,320,2012-12-07 11:15:00
3:35 AM,44.6,44.6,100,30.07,4.0,WNW,5.8,-,N/A,,Overcast,300,2012-12-07 11:35:00
3:55 AM,44.6,44.6,100,30.08,3.0,WNW,8.1,-,N/A,,Overcast,300,2012-12-07 11:55:00
4:15 AM,44.6,44.6,100,30.07,5.0,WNW,5.8,-,N/A,,Overcast,290,2012-12-07 12:15:00
4:35 AM,44.6,44.6,100,30.07,5.0,WNW,4.6,-,N/A,,Overcast,290,2012-12-07 12:35:00
4:55 AM,44.6,44.6,100,30.08,4.0,WNW,8.1,-,N/A,,Overcast,300,2012-12-07 12:55:00
5:15 AM,44.6,44.6,100,30.08,4.0,WNW,5.8,-,N/A,,Overcast,290,2012-12-07 13:15:00
5:35 AM,44.6,44.6,100,30.08,5.0,NW,4.6,-,N/A,,Overcast,310,2012-12-07 13:35:00
5:55 AM,44.6,44.6,100,30.08,5.0,Calm,Calm,-,N/A,,Overcast,0,2012-12-07 13:55:00
6:15 AM,44.6,44.6,100,30.09,5.0,NW,3.5,-,N/A,,Overcast,310,2012-12-07 14:15:00
6:35 AM,44.6,44.6,100,30.09,3.0,West,4.6,-,N/A,,Overcast,270,2012-12-07 14:35:00
6:55 AM,44.6,44.6,100,30.09,3.0,NW,3.5,-,N/A,,Overcast,320,2012-12-07 14:55:00
7:15 AM,44.6,44.6,100,30.10,5.0,WNW,5.8,-,N/A,,Overcast,300,2012-12-07 15:15:00
7:35 AM,44.6,44.6,100,30.11,4.0,West,5.8,-,N/A,,Overcast,280,2012-12-07 15:35:00
7:55 AM,44.6,44.6,100,30.11,3.0,WNW,8.1,-,N/A,,Overcast,290,2012-12-07 15:55:00
8:15 AM,44.6,44.6,100,30.11,3.0,WNW,6.9,-,N/A,,Overcast,290,2012-12-07 16:15:00
8:35 AM,46.4,44.6,93,30.12,10.0,NW,5.8,-,N/A,,Overcast,310,2012-12-07 16:35:00
8:55 AM,46.4,41.0,81,30.13,10.0,NW,6.9,-,N/A,,Overcast,320,2012-12-07 16:55:00
9:15 AM,48.2,42.8,82,30.13,10.0,NNW,8.1,-,N/A,,Overcast,330,2012-12-07 17:15:00
9:35 AM,46.4,41.0,81,30.14,10.0,NW,5.8,-,N/A,,Overcast,310,2012-12-07 17:35:00
9:55 AM,48.2,41.0,76,30.14,10.0,NW,6.9,-,N/A,,Mostly Cloudy,320,2012-12-07 17:55:00
10:15 AM,48.2,41.0,76,30.13,9.0,NW,4.6,-,N/A,,Partly Cloudy,320,2012-12-07 18:15:00
10:35 AM,50.0,41.0,71,30.12,10.0,WNW,4.6,-,N/A,,Clear,300,2012-12-07 18:35:00
10:55 AM,50.0,42.8,76,30.12,10.0,West,5.8,-,N/A,,Clear,280,2012-12-07 18:55:00
11:15 AM,53.6,41.0,62,30.11,10.0,North,3.5,-,N/A,,Clear,350,2012-12-07 19:15:00
11:35 AM,53.6,41.0,62,30.10,10.0,Calm,Calm,-,N/A,,Clear,0,2012-12-07 19:35:00
11:55 AM,55.4,41.0,58,30.08,10.0,Calm,Calm,-,N/A,,Clear,0,2012-12-07 19:55:00
12:15 PM,57.2,41.0,55,30.08,10.0,NW,10.4,-,N/A,,Clear,320,2012-12-07 20:15:00
12:35 PM,55.4,44.6,67,30.07,9.0,NW,13.8,-,N/A,,Clear,310,2012-12-07 20:35:00
12:55 PM,55.4,44.6,67,30.07,10.0,NW,13.8,-,N/A,,Clear,320,2012-12-07 20:55:00
1:15 PM,53.6,44.6,72,30.06,10.0,NW,15.0,-,N/A,,Clear,320,2012-12-07 21:15:00
1:35 PM,50.0,44.6,82,30.06,9.0,NW,16.1,-,N/A,,Clear,320,2012-12-07 21:35:00
1:55 PM,50.0,44.6,82,30.06,9.0,NW,13.8,-,N/A,,Scattered Clouds,320,2012-12-07 21:55:00
2:15 PM,48.2,44.6,87,30.06,6.0,NW,13.8,-,N/A,,Mostly Cloudy,320,2012-12-07 22:15:00
2:35 PM,46.4,44.6,93,30.06,3.0,NW,10.4,-,N/A,,Overcast,310,2012-12-07 22:35:00
2:55 PM,46.4,44.6,93,30.07,1.0,NW,12.7,-,N/A,,Overcast,320,2012-12-07 22:55:00
3:15 PM,46.4,44.6,93,30.07,1.5,NW,11.5,-,N/A,,Overcast,320,2012-12-07 23:15:00
3:35 PM,46.4,44.6,93,30.07,1.0,NNW,8.1,-,N/A,,Overcast,330,2012-12-07 23:35:00
3:55 PM,46.4,44.6,93,30.07,1.0,NW,9.2,-,N/A,,Overcast,320,2012-12-07 23:55:00
4:15 PM,44.6,44.6,100,30.07,1.8,NW,9.2,-,N/A,,Overcast,310,2012-12-08 00:15:00
4:35 PM,44.6,44.6,100,30.07,2.0,WNW,9.2,-,N/A,,Overcast,300,2012-12-08 00:35:00
4:55 PM,44.6,44.6,100,30.08,1.5,NW,9.2,-,N/A,,Overcast,320,2012-12-08 00:55:00
5:15 PM,44.6,44.6,100,30.08,0.8,WNW,6.9,-,N/A,,Overcast,300,2012-12-08 01:15:00
5:35 PM,44.6,44.6,100,30.08,0.8,WNW,8.1,-,N/A,,Overcast,290,2012-12-08 01:35:00
5:55 PM,44.6,44.6,100,30.09,2.5,NW,9.2,-,N/A,,Overcast,310,2012-12-08 01:55:00
6:15 PM,44.6,44.6,100,30.09,2.5,WNW,6.9,-,N/A,,Overcast,300,2012-12-08 02:15:00
6:55 PM,42.8,42.8,100,30.09,0.5,NW,5.8,-,N/A,Fog,Fog,310,2012-12-08 02:55:00
7:15 PM,42.8,42.8,100,30.10,1.0,NW,8.1,-,N/A,,Overcast,320,2012-12-08 03:15:00
7:35 PM,42.8,42.8,100,30.10,3.0,NW,8.1,-,N/A,,Overcast,310,2012-12-08 03:35:00
7:55 PM,42.8,42.8,100,30.10,3.0,NW,5.8,-,N/A,,Overcast,320,2012-12-08 03:55:00
8:35 PM,42.8,42.8,100,30.11,4.0,Calm,Calm,-,N/A,,Overcast,0,2012-12-08 04:35:00
8:55 PM,42.8,42.8,100,30.10,4.0,Calm,Calm,-,N/A,,Overcast,0,2012-12-08 04:55:00
9:15 PM,42.8,42.8,100,30.10,4.0,Calm,Calm,-,N/A,,Overcast,0,2012-12-08 05:15:00
9:35 PM,41.0,41.0,100,30.09,5.0,Calm,Calm,-,N/A,,Overcast,0,2012-12-08 05:35:00
9:55 PM,41.0,41.0,100,30.09,5.0,SSE,3.5,-,N/A,,Overcast,160,2012-12-08 05:55:00
10:15 PM,41.0,41.0,100,30.09,5.0,Calm,Calm,-,N/A,,Overcast,0,2012-12-08 06:15:00
10:35 PM,41.0,41.0,100,30.09,4.0,Calm,Calm,-,N/A,,Overcast,0,2012-12-08 06:35:00
10:55 PM,41.0,41.0,100,30.09,3.0,Calm,Calm,-,N/A,,Overcast,0,2012-12-08 06:55:00
11:15 PM,39.2,39.2,100,30.09,2.5,Calm,Calm,-,N/A,,Overcast,0,2012-12-08 07:15:00
11:35 PM,39.2,39.2,100,30.08,2.5,Calm,Calm,-,N/A,,Overcast,0,2012-12-08 07:35:00
11:55 PM,39.2,39.2,100,30.08,2.0,NNE,3.5,-,N/A,,Overcast,30,2012-12-08 07:55:00